| time (UTC) | temp F | wind direction | speed MPH | gust MPH | rain 1hr in | rain 24hr in | rain mn in | humidity % | barometer mb |
| 20260510214641 | 69 | 220 | 2.0 | 7.0 | 0.00 | 0.10 | 0.01 | 64 | 1011.8 |
| 20260510214408 | 69 | 252 | 3.0 | 7.0 | 0.00 | 0.10 | 0.01 | 64 | 1011.8 |
| 20260510214144 | 69 | 227 | 3.0 | 7.0 | 0.00 | 0.10 | 0.01 | 65 | 1011.9 |
| 20260510213834 | 69 | 278 | 2.0 | 11.0 | 0.00 | 0.10 | 0.01 | 65 | 1011.9 |
| 20260510213632 | 69 | 245 | 3.0 | 11.0 | 0.00 | 0.10 | 0.01 | 65 | 1011.9 |
| 20260510213344 | 69 | 234 | 5.0 | 11.0 | 0.00 | 0.10 | 0.01 | 64 | 1011.8 |
| 20260510213143 | 69 | 210 | 3.0 | 11.0 | 0.00 | 0.10 | 0.01 | 65 | 1011.9 |
| 20260510212834 | 69 | 258 | 4.0 | 8.0 | 0.00 | 0.10 | 0.01 | 64 | 1011.9 |
| 20260510212632 | 69 | 262 | 5.0 | 8.0 | 0.00 | 0.10 | 0.01 | 63 | 1011.9 |
| 20260510212342 | 69 | 235 | 3.0 | 9.0 | 0.00 | 0.10 | 0.01 | 63 | 1011.8 |
| 20260510212140 | 69 | 264 | 2.0 | 11.0 | 0.00 | 0.10 | 0.01 | 63 | 1011.8 |
| 20260510211829 | 69 | 247 | 4.0 | 11.0 | 0.00 | 0.10 | 0.01 | 63 | 1011.8 |
| 20260510211648 | 69 | 239 | 3.0 | 12.0 | 0.00 | 0.10 | 0.01 | 63 | 1011.7 |
| 20260510211336 | 69 | 224 | 4.0 | 14.0 | 0.00 | 0.10 | 0.01 | 62 | 1011.7 |
| 20260510211135 | 69 | 239 | 4.0 | 14.0 | 0.00 | 0.10 | 0.01 | 62 | 1011.7 |
| 20260510210847 | 69 | 225 | 8.0 | 14.0 | 0.00 | 0.10 | 0.01 | 62 | 1011.6 |
| 20260510210705 | 69 | 203 | 4.0 | 9.0 | 0.00 | 0.10 | 0.01 | 62 | 1011.6 |
| 20260510210334 | 69 | 252 | 6.0 | 11.0 | 0.00 | 0.10 | 0.01 | 61 | 1011.6 |
| 20260510210132 | 69 | 235 | 4.0 | 11.0 | 0.00 | 0.10 | 0.01 | 61 | 1011.6 |
| 20260510205910 | 69 | 237 | 5.0 | 11.0 | 0.00 | 0.10 | 0.01 | 61 | 1011.5 |
| 20260510205709 | 69 | 240 | 4.0 | 9.0 | 0.00 | 0.10 | 0.01 | 61 | 1011.5 |
| 20260510205355 | 69 | 220 | 4.0 | 8.0 | 0.00 | 0.10 | 0.01 | 61 | 1011.5 |
| 20260510205137 | 69 | 243 | 2.0 | 8.0 | 0.00 | 0.10 | 0.01 | 61 | 1011.5 |
| 20260510204843 | 69 | 225 | 3.0 | 8.0 | 0.00 | 0.23 | 0.01 | 60 | 1011.4 |
| 20260510204644 | 70 | 260 | 2.0 | 9.0 | 0.00 | 0.23 | 0.01 | 60 | 1011.4 |
| 20260510204352 | 69 | 265 | 2.0 | 9.0 | 0.00 | 0.23 | 0.01 | 60 | 1011.4 |
| 20260510204155 | 69 | 283 | 2.0 | 9.0 | 0.00 | 0.23 | 0.01 | 59 | 1011.3 |
| 20260510203842 | 69 | 250 | 4.0 | 10.0 | 0.00 | 0.23 | 0.01 | 60 | 1011.2 |
| 20260510203641 | 69 | 236 | 4.0 | 10.0 | 0.00 | 0.23 | 0.01 | 59 | 1011.3 |
| 20260510203332 | 70 | 221 | 4.0 | 10.0 | 0.00 | 0.23 | 0.01 | 59 | 1011.3 |
| 20260510203130 | 70 | 187 | 2.0 | 11.0 | 0.00 | 0.23 | 0.01 | 58 | 1011.3 |
| 20260510202840 | 70 | 232 | 5.0 | 11.0 | 0.00 | 0.23 | 0.01 | 57 | 1011.3 |
| 20260510202638 | 70 | 266 | 4.0 | 11.0 | 0.00 | 0.23 | 0.01 | 58 | 1011.3 |
| 20260510202329 | 70 | 351 | 4.0 | 11.0 | 0.00 | 0.23 | 0.01 | 58 | 1011.3 |
| 20260510202147 | 70 | 252 | 4.0 | 11.0 | 0.00 | 0.23 | 0.01 | 58 | 1011.2 |
| 20260510201837 | 71 | 270 | 5.0 | 10.0 | 0.00 | 0.23 | 0.01 | 57 | 1011.1 |
| 20260510201632 | 71 | 261 | 3.0 | 10.0 | 0.00 | 0.23 | 0.01 | 58 | 1011.2 |
| 20260510201340 | 70 | 266 | 3.0 | 15.0 | 0.00 | 0.23 | 0.01 | 60 | 1011.2 |
| 20260510201139 | 70 | 262 | 6.0 | 15.0 | 0.00 | 0.23 | 0.01 | 59 | 1011.1 |
| 20260510200830 | 71 | 226 | 8.0 | 17.0 | 0.00 | 0.23 | 0.01 | 59 | 1011.1 |
| 20260510200647 | 71 | 233 | 8.0 | 17.0 | 0.00 | 0.23 | 0.01 | 59 | 1011.1 |
| 20260510200338 | 71 | 299 | 6.0 | 17.0 | 0.00 | 0.23 | 0.01 | 59 | 1011.1 |
| 20260510200137 | 71 | 236 | 8.0 | 17.0 | 0.00 | 0.23 | 0.01 | 58 | 1011.1 |
| 20260510195848 | 71 | 240 | 10.0 | 17.0 | 0.00 | 0.23 | 0.01 | 58 | 1011.2 |
| 20260510195707 | 71 | 234 | 7.0 | 15.0 | 0.00 | 0.23 | 0.01 | 58 | 1011.1 |
| 20260510195358 | 71 | 248 | 6.0 | 15.0 | 0.00 | 0.23 | 0.01 | 59 | 1011.1 |
| 20260510195158 | 71 | 236 | 6.0 | 15.0 | 0.00 | 0.23 | 0.01 | 58 | 1011.2 |
| 20260510194844 | 71 | 223 | 4.0 | 15.0 | 0.00 | 0.29 | 0.01 | 59 | 1011.2 |
| 20260510194647 | 72 | 246 | 7.0 | 15.0 | 0.00 | 0.29 | 0.01 | 58 | 1011.2 |
| 20260510194333 | 72 | 229 | 7.0 | 13.0 | 0.00 | 0.29 | 0.01 | 58 | 1011.3 |
| 20260510194135 | 72 | 243 | 5.0 | 12.0 | 0.00 | 0.29 | 0.01 | 59 | 1011.2 |
| 20260510193843 | 72 | 262 | 6.0 | 12.0 | 0.00 | 0.29 | 0.01 | 58 | 1011.3 |
| 20260510193646 | 73 | 235 | 3.0 | 11.0 | 0.00 | 0.29 | 0.01 | 59 | 1011.3 |
| 20260510193354 | 72 | 322 | 4.0 | 11.0 | 0.00 | 0.29 | 0.01 | 61 | 1011.2 |
| 20260510193135 | 73 | 229 | 6.0 | 12.0 | 0.00 | 0.29 | 0.01 | 61 | 1011.2 |
| 20260510192842 | 72 | 237 | 2.0 | 12.0 | 0.00 | 0.29 | 0.01 | 62 | 1011.2 |
| 20260510192644 | 72 | 300 | 3.0 | 12.0 | 0.00 | 0.29 | 0.01 | 62 | 1011.2 |
| 20260510192331 | 73 | 242 | 5.0 | 9.0 | 0.00 | 0.29 | 0.01 | 63 | 1011.3 |
| 20260510192133 | 72 | 240 | 2.0 | 8.0 | 0.00 | 0.29 | 0.01 | 65 | 1011.2 |
| 20260510191841 | 72 | 308 | 3.0 | 8.0 | 0.00 | 0.29 | 0.01 | 64 | 1011.3 |
| 20260510191640 | 72 | 277 | 3.0 | 9.0 | 0.00 | 0.29 | 0.01 | 64 | 1011.2 |
| 20260510191329 | 72 | 282 | 3.0 | 9.0 | 0.00 | 0.29 | 0.01 | 65 | 1011.2 |
| 20260510191128 | 72 | 285 | 3.0 | 9.0 | 0.00 | 0.29 | 0.01 | 64 | 1011.2 |
| 20260510190841 | 72 | 262 | 3.0 | 9.0 | 0.00 | 0.29 | 0.01 | 63 | 1011.2 |
| 20260510190639 | 73 | 239 | 3.0 | 8.0 | 0.00 | 0.29 | 0.01 | 63 | 1011.3 |
| 20260510190350 | 73 | 356 | 3.0 | 8.0 | 0.00 | 0.29 | 0.01 | 63 | 1011.3 |
| 20260510190146 | 73 | 262 | 2.0 | 5.0 | 0.00 | 0.29 | 0.01 | 63 | 1011.2 |
| 20260510185837 | 73 | 346 | 1.0 | 9.0 | 0.00 | 0.29 | 0.01 | 64 | 1011.3 |
| 20260510185635 | 73 | 226 | 2.0 | 9.0 | 0.00 | 0.29 | 0.01 | 63 | 1011.3 |
| 20260510185347 | 73 | 325 | 2.0 | 9.0 | 0.00 | 0.29 | 0.01 | 63 | 1011.3 |
| 20260510185146 | 73 | 283 | 3.0 | 9.0 | 0.00 | 0.29 | 0.01 | 63 | 1011.3 |
| 20260510184858 | 73 | 351 | 2.0 | 7.0 | 0.00 | 0.31 | 0.01 | 63 | 1011.3 |
| 20260510184635 | 73 | 271 | 3.0 | 7.0 | 0.00 | 0.31 | 0.01 | 64 | 1011.4 |
| 20260510184347 | 73 | 244 | 3.0 | 8.0 | 0.00 | 0.31 | 0.01 | 62 | 1011.3 |
| 20260510184146 | 73 | 213 | 2.0 | 9.0 | 0.00 | 0.31 | 0.01 | 62 | 1011.4 |
| 20260510183837 | 73 | 277 | 2.0 | 9.0 | 0.00 | 0.31 | 0.01 | 62 | 1011.4 |
| 20260510183654 | 73 | 246 | 3.0 | 12.0 | 0.00 | 0.31 | 0.01 | 60 | 1011.3 |
| 20260510183340 | 73 | 308 | 3.0 | 12.0 | 0.00 | 0.31 | 0.01 | 61 | 1011.3 |
| 20260510183143 | 73 | 293 | 3.0 | 13.0 | 0.00 | 0.31 | 0.01 | 61 | 1011.4 |
| 20260510182830 | 73 | 236 | 4.0 | 13.0 | 0.00 | 0.31 | 0.01 | 60 | 1011.4 |
| 20260510182632 | 73 | 250 | 6.0 | 13.0 | 0.00 | 0.31 | 0.01 | 59 | 1011.3 |
| 20260510182341 | 74 | 228 | 3.0 | 14.0 | 0.00 | 0.31 | 0.01 | 59 | 1011.4 |
| 20260510182143 | 74 | 253 | 4.0 | 14.0 | 0.00 | 0.31 | 0.01 | 59 | 1011.3 |
| 20260510181830 | 74 | 256 | 3.0 | 14.0 | 0.00 | 0.31 | 0.01 | 60 | 1011.4 |
| 20260510181653 | 74 | 211 | 6.0 | 14.0 | 0.00 | 0.31 | 0.01 | 58 | 1011.2 |
| 20260510181337 | 74 | 272 | 2.0 | 11.0 | 0.00 | 0.31 | 0.01 | 59 | 1011.3 |
| 20260510181138 | 74 | 21 | 2.0 | 11.0 | 0.00 | 0.31 | 0.01 | 59 | 1011.4 |
| 20260510180845 | 74 | 338 | 4.0 | 11.0 | 0.00 | 0.31 | 0.01 | 61 | 1011.4 |
| 20260510180648 | 73 | 295 | 3.0 | 9.0 | 0.00 | 0.31 | 0.01 | 62 | 1011.4 |
| 20260510180355 | 73 | 254 | 3.0 | 9.0 | 0.00 | 0.31 | 0.01 | 62 | 1011.3 |
| 20260510180129 | 73 | 249 | 5.0 | 9.0 | 0.00 | 0.31 | 0.01 | 63 | 1011.3 |
| 20260510175835 | 73 | 251 | 3.0 | 9.0 | 0.00 | 0.31 | 0.01 | 67 | 1011.2 |
| 20260510175652 | 73 | 231 | 5.0 | 9.0 | 0.00 | 0.31 | 0.01 | 64 | 1011.2 |
| 20260510175404 | 73 | 252 | 2.0 | 7.0 | 0.00 | 0.31 | 0.01 | 66 | 1011.1 |
| 20260510175202 | 73 | 223 | 4.0 | 7.0 | 0.00 | 0.31 | 0.01 | 65 | 1011.1 |
| 20260510174852 | 73 | 243 | 3.0 | 7.0 | 0.00 | 0.31 | 0.01 | 66 | 1011.1 |
| 20260510174629 | 73 | 256 | 2.0 | 7.0 | 0.00 | 0.31 | 0.01 | 67 | 1011.1 |
| 20260510174341 | 73 | 266 | 2.0 | 9.0 | 0.00 | 0.31 | 0.01 | 68 | 1011.1 |
| 20260510174141 | 73 | 246 | 3.0 | 9.0 | 0.00 | 0.31 | 0.01 | 69 | 1011.0 |
| 20260510173831 | 73 | 235 | 4.0 | 9.0 | 0.00 | 0.31 | 0.01 | 69 | 1011.0 |
| 20260510173650 | 73 | 226 | 5.0 | 10.0 | 0.00 | 0.31 | 0.01 | 68 | 1011.0 |
| 20260510173340 | 73 | 194 | 4.0 | 10.0 | 0.00 | 0.31 | 0.01 | 68 | 1010.9 |
| 20260510173137 | 73 | 181 | 4.0 | 10.0 | 0.00 | 0.31 | 0.01 | 70 | 1010.9 |
| 20260510172844 | 73 | 213 | 6.0 | 10.0 | 0.00 | 0.31 | 0.01 | 68 | 1010.9 |
| 20260510172646 | 73 | 162 | 5.0 | 9.0 | 0.00 | 0.31 | 0.01 | 70 | 1010.8 |
| 20260510172353 | 72 | 200 | 2.0 | 8.0 | 0.00 | 0.31 | 0.01 | 71 | 1010.9 |
| 20260510172135 | 72 | 199 | 5.0 | 8.0 | 0.00 | 0.31 | 0.01 | 70 | 1011.0 |
| 20260510171841 | 72 | 169 | 4.0 | 8.0 | 0.00 | 0.31 | 0.01 | 68 | 1010.9 |
| 20260510171642 | 72 | 223 | 5.0 | 8.0 | 0.00 | 0.31 | 0.01 | 69 | 1011.0 |
| 20260510171348 | 72 | 191 | 4.0 | 8.0 | 0.00 | 0.31 | 0.01 | 71 | 1011.0 |
| 20260510171131 | 71 | 225 | 5.0 | 9.0 | 0.00 | 0.31 | 0.01 | 71 | 1011.0 |
| 20260510170837 | 72 | 229 | 4.0 | 9.0 | 0.00 | 0.31 | 0.01 | 71 | 1011.0 |
| 20260510170703 | 72 | 220 | 3.0 | 8.0 | 0.00 | 0.31 | 0.01 | 72 | 1011.0 |
| 20260510170329 | 71 | 173 | 5.0 | 8.0 | 0.00 | 0.31 | 0.01 | 72 | 1011.1 |
| 20260510170214 | 71 | 229 | 5.0 | 10.0 | 0.00 | 0.31 | 0.01 | 73 | 1011.1 |
| 20260510165904 | 70 | 175 | 3.0 | 10.0 | 0.00 | 0.31 | 0.01 | 76 | 1011.1 |
| 20260510165641 | 70 | 204 | 1.0 | 11.0 | 0.00 | 0.31 | 0.01 | 74 | 1011.2 |
| 20260510165332 | 70 | 208 | 6.0 | 11.0 | 0.00 | 0.31 | 0.01 | 73 | 1011.3 |
| 20260510165130 | 69 | 183 | 4.0 | 11.0 | 0.00 | 0.31 | 0.01 | 75 | 1011.3 |
| 20260510164840 | 69 | 194 | 4.0 | 10.0 | 0.00 | 0.31 | 0.01 | 76 | 1011.3 |
| 20260510164659 | 69 | 274 | 6.0 | 10.0 | 0.00 | 0.31 | 0.01 | 74 | 1011.3 |
| 20260510164348 | 69 | 193 | 5.0 | 10.0 | 0.00 | 0.31 | 0.01 | 75 | 1011.4 |
| 20260510164147 | 69 | 223 | 6.0 | 10.0 | 0.00 | 0.31 | 0.01 | 75 | 1011.4 |
| 20260510163838 | 69 | 236 | 5.0 | 10.0 | 0.00 | 0.31 | 0.01 | 76 | 1011.4 |
| 20260510163636 | 69 | 181 | 5.0 | 10.0 | 0.00 | 0.31 | 0.01 | 77 | 1011.4 |
| 20260510163347 | 69 | 199 | 5.0 | 10.0 | 0.00 | 0.31 | 0.01 | 78 | 1011.4 |
| 20260510163145 | 68 | 164 | 4.0 | 9.0 | 0.00 | 0.31 | 0.01 | 77 | 1011.4 |
| 20260510162837 | 68 | 216 | 5.0 | 9.0 | 0.00 | 0.31 | 0.01 | 77 | 1011.4 |
| 20260510162635 | 68 | 229 | 6.0 | 9.0 | 0.00 | 0.31 | 0.01 | 76 | 1011.4 |
| 20260510162346 | 68 | 220 | 3.0 | 7.0 | 0.00 | 0.31 | 0.01 | 78 | 1011.5 |
| 20260510162145 | 68 | 151 | 3.0 | 7.0 | 0.00 | 0.31 | 0.01 | 78 | 1011.4 |
| 20260510161837 | 68 | 211 | 4.0 | 7.0 | 0.00 | 0.31 | 0.01 | 78 | 1011.6 |
| 20260510161635 | 68 | 190 | 5.0 | 7.0 | 0.00 | 0.31 | 0.01 | 79 | 1011.6 |
| 20260510161338 | 67 | 156 | 4.0 | 7.0 | 0.00 | 0.31 | 0.01 | 82 | 1011.6 |
| 20260510155635 | 65 | 192 | 3.0 | 9.0 | 0.00 | 0.31 | 0.01 | 82 | 1011.7 |
| 20260510155346 | 65 | 110 | 5.0 | 9.0 | 0.00 | 0.31 | 0.01 | 82 | 1011.7 |
| 20260510155145 | 65 | 200 | 5.0 | 9.0 | 0.00 | 0.31 | 0.01 | 82 | 1011.7 |
| 20260510154835 | 65 | 191 | 3.0 | 8.0 | 0.00 | 0.31 | 0.01 | 83 | 1011.6 |
| 20260510154633 | 64 | 198 | 4.0 | 9.0 | 0.00 | 0.31 | 0.01 | 83 | 1011.6 |
| 20260510154401 | 64 | 189 | 4.0 | 9.0 | 0.00 | 0.31 | 0.01 | 82 | 1011.6 |
| 20260510154144 | 64 | 129 | 4.0 | 9.0 | 0.00 | 0.31 | 0.01 | 84 | 1011.7 |
| 20260510153831 | 63 | 164 | 5.0 | 9.0 | 0.00 | 0.31 | 0.01 | 83 | 1011.8 |
| 20260510153632 | 63 | 223 | 4.0 | 8.0 | 0.00 | 0.31 | 0.01 | 84 | 1011.8 |
| 20260510153339 | 63 | 206 | 2.0 | 7.0 | 0.00 | 0.31 | 0.01 | 86 | 1011.8 |
| 20260510153202 | 63 | 138 | 4.0 | 7.0 | 0.00 | 0.31 | 0.01 | 85 | 1011.9 |
| 20260510152908 | 62 | 67 | 4.0 | 8.0 | 0.00 | 0.31 | 0.01 | 86 | 1011.8 |
| 20260510152648 | 62 | 175 | 3.0 | 8.0 | 0.00 | 0.31 | 0.01 | 86 | 1011.9 |
| 20260510152337 | 62 | 223 | 3.0 | 9.0 | 0.00 | 0.31 | 0.01 | 85 | 1011.8 |
| 20260510152138 | 62 | 193 | 4.0 | 9.0 | 0.00 | 0.31 | 0.01 | 84 | 1011.8 |
| 20260510151906 | 62 | 190 | 5.0 | 9.0 | 0.00 | 0.31 | 0.01 | 84 | 1011.9 |
| 20260510151642 | 62 | 196 | 4.0 | 9.0 | 0.00 | 0.31 | 0.01 | 85 | 1011.8 |
| 20260510151332 | 62 | 131 | 3.0 | 9.0 | 0.00 | 0.31 | 0.01 | 86 | 1011.8 |
| 20260510151130 | 62 | 121 | 3.0 | 10.0 | 0.00 | 0.31 | 0.01 | 86 | 1011.8 |
| 20260510150842 | 61 | 164 | 5.0 | 10.0 | 0.00 | 0.31 | 0.01 | 85 | 1011.7 |
| 20260510150640 | 61 | 166 | 2.0 | 10.0 | 0.00 | 0.31 | 0.01 | 86 | 1011.7 |
| 20260510150331 | 61 | 219 | 5.0 | 9.0 | 0.00 | 0.31 | 0.01 | 86 | 1011.7 |
| 20260510150130 | 61 | 154 | 6.0 | 9.0 | 0.00 | 0.31 | 0.01 | 85 | 1011.8 |
| 20260510145843 | 61 | 150 | 4.0 | 8.0 | 0.00 | 0.31 | 0.01 | 85 | 1011.8 |
| 20260510145641 | 62 | 186 | 4.0 | 8.0 | 0.00 | 0.31 | 0.01 | 88 | 1011.8 |
| 20260510145331 | 61 | 128 | 2.0 | 9.0 | 0.00 | 0.31 | 0.01 | 88 | 1011.9 |
| 20260510145149 | 61 | 129 | 5.0 | 9.0 | 0.00 | 0.31 | 0.01 | 87 | 1012.0 |
| 20260510144900 | 60 | 186 | 4.0 | 8.0 | 0.00 | 0.31 | 0.01 | 86 | 1012.0 |
| 20260510144638 | 61 | 199 | 4.0 | 7.0 | 0.00 | 0.31 | 0.01 | 87 | 1012.0 |
| 20260510144329 | 61 | 197 | 3.0 | 7.0 | 0.00 | 0.31 | 0.01 | 87 | 1012.0 |
| 20260510144148 | 61 | 149 | 5.0 | 7.0 | 0.00 | 0.31 | 0.01 | 87 | 1012.0 |
| 20260510143840 | 61 | 214 | 3.0 | 8.0 | 0.00 | 0.31 | 0.01 | 90 | 1012.0 |
| 20260510143639 | 60 | 232 | 3.0 | 8.0 | 0.00 | 0.31 | 0.01 | 90 | 1012.0 |
| 20260510143351 | 60 | 256 | 4.0 | 8.0 | 0.00 | 0.31 | 0.01 | 91 | 1011.9 |
| 20260510143129 | 60 | 158 | 2.0 | 8.0 | 0.00 | 0.31 | 0.01 | 91 | 1011.9 |
| 20260510142836 | 59 | 170 | 4.0 | 8.0 | 0.00 | 0.31 | 0.01 | 91 | 1011.9 |
| 20260510142637 | 59 | 226 | 5.0 | 8.0 | 0.00 | 0.31 | 0.01 | 91 | 1011.9 |
| 20260510142345 | 58 | 175 | 4.0 | 7.0 | 0.00 | 0.31 | 0.01 | 91 | 1011.9 |
| 20260510142146 | 58 | 166 | 5.0 | 7.0 | 0.00 | 0.31 | 0.01 | 91 | 1011.9 |
| 20260510141832 | 58 | 210 | 2.0 | 6.0 | 0.00 | 0.31 | 0.01 | 93 | 1011.9 |
| 20260510141634 | 58 | 160 | 3.0 | 6.0 | 0.00 | 0.31 | 0.01 | 92 | 1011.8 |
| 20260510141339 | 58 | 133 | 3.0 | 6.0 | 0.00 | 0.31 | 0.01 | 93 | 1011.9 |
| 20260510141142 | 58 | 139 | 2.0 | 6.0 | 0.00 | 0.31 | 0.01 | 93 | 1011.9 |
| 20260510140830 | 57 | 117 | 4.0 | 7.0 | 0.00 | 0.31 | 0.01 | 94 | 1012.0 |
| 20260510140632 | 57 | 139 | 4.0 | 7.0 | 0.00 | 0.31 | 0.01 | 94 | 1012.0 |
| 20260510140340 | 57 | 186 | 3.0 | 6.0 | 0.00 | 0.31 | 0.01 | 94 | 1011.9 |
| 20260510140141 | 57 | 187 | 1.0 | 6.0 | 0.00 | 0.31 | 0.01 | 94 | 1011.9 |
| 20260510135908 | 57 | 188 | 2.0 | 6.0 | 0.00 | 0.31 | 0.01 | 95 | 1011.8 |
| 20260510135629 | 57 | 188 | 3.0 | 6.0 | 0.00 | 0.31 | 0.01 | 95 | 1011.9 |
| 20260510135356 | 57 | 202 | 3.0 | 6.0 | 0.00 | 0.31 | 0.01 | 95 | 1011.8 |
| 20260510135133 | 57 | 201 | 2.0 | 6.0 | 0.00 | 0.31 | 0.01 | 96 | 1011.8 |
| 20260510134843 | 57 | 169 | 4.0 | 6.0 | 0.00 | 0.31 | 0.01 | 96 | 1011.8 |
| 20260510134641 | 57 | 165 | 4.0 | 6.0 | 0.00 | 0.31 | 0.01 | 96 | 1011.8 |
| 20260510134331 | 56 | 198 | 4.0 | 6.0 | 0.00 | 0.31 | 0.01 | 96 | 1011.8 |
| 20260510134132 | 56 | 234 | 4.0 | 6.0 | 0.00 | 0.31 | 0.01 | 96 | 1011.9 |
| 20260510133843 | 57 | 152 | 4.0 | 7.0 | 0.00 | 0.31 | 0.01 | 97 | 1011.8 |
| 20260510133640 | 56 | 212 | 3.0 | 7.0 | 0.00 | 0.31 | 0.01 | 98 | 1011.8 |
| 20260510133330 | 56 | 154 | 3.0 | 6.0 | 0.00 | 0.31 | 0.01 | 98 | 1011.9 |
| 20260510133149 | 56 | 120 | 2.0 | 5.0 | 0.00 | 0.31 | 0.01 | 98 | 1011.8 |
| 20260510132840 | 56 | 152 | 3.0 | 5.0 | 0.00 | 0.31 | 0.01 | 98 | 1011.8 |
| 20260510132639 | 56 | 151 | 3.0 | 5.0 | 0.00 | 0.31 | 0.01 | 98 | 1011.8 |
| 20260510132332 | 55 | 181 | 2.0 | 5.0 | 0.00 | 0.31 | 0.01 | 98 | 1011.8 |
| 20260510132129 | 55 | 202 | 1.0 | 4.0 | 0.00 | 0.31 | 0.01 | 98 | 1011.8 |
| 20260510131840 | 55 | 202 | 1.0 | 4.0 | 0.00 | 0.31 | 0.01 | 98 | 1011.8 |
| 20260510131638 | 55 | 202 | 2.0 | 4.0 | 0.00 | 0.31 | 0.01 | 98 | 1011.7 |
| 20260510131348 | 55 | 205 | 1.0 | 4.0 | 0.00 | 0.31 | 0.01 | 98 | 1011.8 |
| 20260510131147 | 55 | 205 | 3.0 | 4.0 | 0.00 | 0.31 | 0.01 | 98 | 1011.8 |
| 20260510130859 | 55 | 206 | 1.0 | 4.0 | 0.00 | 0.31 | 0.01 | 98 | 1011.8 |
| 20260510130636 | 54 | 206 | 1.0 | 4.0 | 0.00 | 0.31 | 0.01 | 98 | 1011.8 |
| 20260510130343 | 54 | 207 | 2.0 | 4.0 | 0.00 | 0.31 | 0.01 | 97 | 1011.7 |
| 20260510130145 | 54 | 279 | 2.0 | 3.0 | 0.00 | 0.31 | 0.01 | 98 | 1011.6 |
| 20260510125851 | 55 | 281 | 2.0 | 3.0 | 0.00 | 0.31 | 0.01 | 98 | 1011.5 |
| 20260510125632 | 54 | 286 | 1.0 | 2.0 | 0.00 | 0.31 | 0.01 | 98 | 1011.4 |
| 20260510125341 | 54 | 286 | 0.0 | 2.0 | 0.00 | 0.31 | 0.01 | 98 | 1011.4 |
| 20260510125143 | 54 | 286 | 1.0 | 2.0 | 0.00 | 0.31 | 0.01 | 98 | 1011.4 |
| 20260510124848 | 54 | 286 | 1.0 | 2.0 | 0.00 | 0.31 | 0.01 | 98 | 1011.4 |
| 20260510124649 | 54 | 286 | 0.0 | 2.0 | 0.00 | 0.31 | 0.01 | 98 | 1011.3 |
| 20260510124355 | 54 | 286 | 0.0 | 2.0 | 0.00 | 0.31 | 0.01 | 98 | 1011.4 |
| 20260510124136 | 54 | 286 | 1.0 | 2.0 | 0.00 | 0.31 | 0.01 | 98 | 1011.3 |
| 20260510123843 | 53 | 286 | 0.0 | 2.0 | 0.00 | 0.31 | 0.01 | 98 | 1011.4 |
| 20260510123641 | 53 | 286 | 1.0 | 2.0 | 0.00 | 0.31 | 0.01 | 98 | 1011.3 |
| 20260510123333 | 53 | 286 | 1.0 | 2.0 | 0.00 | 0.31 | 0.01 | 98 | 1011.4 |
| 20260510123133 | 53 | 286 | 1.0 | 2.0 | 0.00 | 0.31 | 0.01 | 98 | 1011.4 |
| 20260510122844 | 53 | 286 | 0.0 | 2.0 | 0.00 | 0.31 | 0.01 | 98 | 1011.4 |
| 20260510122642 | 53 | 286 | 0.0 | 2.0 | 0.00 | 0.31 | 0.01 | 98 | 1011.4 |
| 20260510122334 | 53 | 286 | 1.0 | 2.0 | 0.00 | 0.31 | 0.01 | 98 | 1011.4 |
| 20260510122133 | 53 | 286 | 0.0 | 2.0 | 0.00 | 0.31 | 0.01 | 98 | 1011.3 |
| 20260510121844 | 53 | 286 | 0.0 | 3.0 | 0.00 | 0.31 | 0.01 | 98 | 1011.3 |
| 20260510121642 | 53 | 286 | 0.0 | 3.0 | 0.00 | 0.31 | 0.01 | 98 | 1011.4 |
| 20260510121331 | 53 | 286 | 1.0 | 3.0 | 0.00 | 0.31 | 0.01 | 98 | 1011.3 |
| 20260510121149 | 53 | 286 | 2.0 | 3.0 | 0.00 | 0.31 | 0.01 | 98 | 1011.3 |
| 20260510120840 | 53 | 292 | 0.0 | 0.0 | 0.00 | 0.31 | 0.01 | 98 | 1011.2 |
| 20260510120659 | 53 | 292 | 0.0 | 0.0 | 0.00 | 0.31 | 0.01 | 98 | 1011.2 |
| 20260510120348 | 53 | 304 | 0.0 | 0.0 | 0.00 | 0.31 | 0.01 | 98 | 1011.2 |
| 20260510120146 | 53 | 304 | 0.0 | 0.0 | 0.00 | 0.31 | 0.01 | 98 | 1011.2 |
| 20260510115837 | 52 | 304 | 0.0 | 0.0 | 0.00 | 0.31 | 0.01 | 98 | 1011.1 |
| 20260510115634 | 52 | 304 | 0.0 | 0.0 | 0.00 | 0.31 | 0.01 | 98 | 1011.1 |
| 20260510115346 | 52 | 304 | 0.0 | 0.0 | 0.00 | 0.31 | 0.01 | 98 | 1011.0 |
| 20260510115144 | 52 | 304 | 0.0 | 0.0 | 0.00 | 0.31 | 0.01 | 98 | 1010.9 |
| 20260510114836 | 52 | 304 | 0.0 | 0.0 | 0.00 | 0.31 | 0.01 | 98 | 1010.9 |
| 20260510114635 | 52 | 304 | 0.0 | 0.0 | 0.00 | 0.31 | 0.01 | 98 | 1010.9 |
| 20260510114348 | 52 | 304 | 0.0 | 0.0 | 0.00 | 0.31 | 0.01 | 98 | 1010.8 |
| 20260510114145 | 52 | 304 | 0.0 | 0.0 | 0.00 | 0.31 | 0.01 | 98 | 1010.8 |
| 20260510113835 | 52 | 304 | 0.0 | 0.0 | 0.00 | 0.31 | 0.01 | 98 | 1010.9 |
| 20260510113633 | 52 | 304 | 0.0 | 0.0 | 0.00 | 0.31 | 0.01 | 98 | 1011.0 |
| 20260510113339 | 52 | 304 | 0.0 | 0.0 | 0.00 | 0.31 | 0.01 | 98 | 1011.0 |
| 20260510113202 | 52 | 304 | 0.0 | 0.0 | 0.00 | 0.31 | 0.01 | 98 | 1011.0 |
| 20260510112829 | 52 | 304 | 0.0 | 0.0 | 0.00 | 0.31 | 0.01 | 98 | 1011.0 |
| 20260510112630 | 52 | 304 | 0.0 | 0.0 | 0.00 | 0.31 | 0.01 | 98 | 1011.0 |
| 20260510112336 | 52 | 304 | 0.0 | 0.0 | 0.00 | 0.31 | 0.01 | 98 | 1010.9 |
| 20260510112138 | 52 | 304 | 0.0 | 0.0 | 0.00 | 0.31 | 0.01 | 98 | 1010.9 |
| 20260510111846 | 52 | 304 | 0.0 | 0.0 | 0.00 | 0.31 | 0.01 | 98 | 1010.9 |
| 20260510111648 | 52 | 304 | 0.0 | 0.0 | 0.00 | 0.31 | 0.01 | 98 | 1010.8 |
| 20260510111334 | 52 | 304 | 0.0 | 1.0 | 0.00 | 0.31 | 0.01 | 98 | 1010.7 |
| 20260510111157 | 52 | 304 | 0.0 | 2.0 | 0.00 | 0.31 | 0.01 | 98 | 1010.8 |
| 20260510110844 | 52 | 304 | 0.0 | 3.0 | 0.00 | 0.31 | 0.01 | 98 | 1010.7 |
| 20260510110642 | 52 | 304 | 0.0 | 3.0 | 0.00 | 0.31 | 0.01 | 98 | 1010.6 |
| 20260510110333 | 52 | 304 | 1.0 | 3.0 | 0.00 | 0.31 | 0.01 | 98 | 1010.7 |
| 20260510110132 | 52 | 304 | 0.0 | 2.0 | 0.00 | 0.31 | 0.01 | 98 | 1010.7 |
| 20260510105842 | 52 | 304 | 0.0 | 2.0 | 0.00 | 0.31 | 0.01 | 98 | 1010.7 |
| 20260510105640 | 51 | 304 | 0.0 | 2.0 | 0.00 | 0.31 | 0.01 | 97 | 1010.7 |
| 20260510105331 | 51 | 304 | 0.0 | 3.0 | 0.00 | 0.31 | 0.01 | 98 | 1010.6 |
| 20260510105130 | 51 | 304 | 0.0 | 3.0 | 0.00 | 0.31 | 0.01 | 98 | 1010.6 |
| 20260510104908 | 51 | 304 | 1.0 | 3.0 | 0.00 | 0.31 | 0.01 | 97 | 1010.5 |
| 20260510104644 | 51 | 304 | 0.0 | 2.0 | 0.00 | 0.31 | 0.01 | 98 | 1010.4 |
| 20260510104334 | 51 | 304 | 1.0 | 2.0 | 0.00 | 0.31 | 0.01 | 97 | 1010.4 |
| 20260510104133 | 51 | 304 | 0.0 | 2.0 | 0.00 | 0.31 | 0.01 | 97 | 1010.4 |
| 20260510103845 | 51 | 304 | 0.0 | 2.0 | 0.00 | 0.31 | 0.01 | 97 | 1010.3 |
| 20260510103704 | 51 | 304 | 0.0 | 2.0 | 0.00 | 0.31 | 0.01 | 97 | 1010.2 |
| 20260510103354 | 51 | 304 | 1.0 | 2.0 | 0.00 | 0.31 | 0.01 | 97 | 1010.3 |
| 20260510103132 | 51 | 304 | 1.0 | 2.0 | 0.00 | 0.31 | 0.01 | 97 | 1010.4 |
| 20260510102844 | 51 | 304 | 1.0 | 3.0 | 0.00 | 0.31 | 0.01 | 97 | 1010.4 |
| 20260510102642 | 51 | 304 | 1.0 | 3.0 | 0.00 | 0.31 | 0.01 | 97 | 1010.4 |
| 20260510102331 | 51 | 304 | 1.0 | 3.0 | 0.00 | 0.31 | 0.01 | 97 | 1010.3 |
| 20260510102148 | 51 | 304 | 2.0 | 3.0 | 0.00 | 0.31 | 0.01 | 97 | 1010.4 |
| 20260510101856 | 51 | 306 | 1.0 | 3.0 | 0.00 | 0.31 | 0.01 | 97 | 1010.4 |
| 20260510101637 | 51 | 306 | 2.0 | 3.0 | 0.00 | 0.31 | 0.01 | 97 | 1010.4 |
| 20260510101342 | 51 | 306 | 2.0 | 3.0 | 0.00 | 0.31 | 0.01 | 97 | 1010.4 |
| 20260510101145 | 51 | 306 | 1.0 | 2.0 | 0.00 | 0.31 | 0.01 | 97 | 1010.3 |
| 20260510100833 | 51 | 306 | 1.0 | 2.0 | 0.00 | 0.31 | 0.01 | 97 | 1010.3 |
| 20260510100656 | 51 | 306 | 2.0 | 2.0 | 0.00 | 0.31 | 0.01 | 97 | 1010.3 |
| 20260510100344 | 51 | 306 | 1.0 | 3.0 | 0.00 | 0.31 | 0.01 | 97 | 1010.3 |
| 20260510100202 | 51 | 306 | 1.0 | 3.0 | 0.00 | 0.31 | 0.01 | 97 | 1010.4 |
| 20260510095852 | 51 | 306 | 1.0 | 3.0 | 0.00 | 0.31 | 0.01 | 97 | 1010.4 |
| 20260510095709 | 51 | 306 | 2.0 | 3.0 | 0.00 | 0.31 | 0.01 | 97 | 1010.5 |
| 20260510095340 | 51 | 306 | 2.0 | 3.0 | 0.00 | 0.31 | 0.01 | 97 | 1010.5 |
| 20260510095137 | 51 | 322 | 2.0 | 3.0 | 0.00 | 0.31 | 0.01 | 97 | 1010.4 |
| 20260510094907 | 51 | 18 | 1.0 | 2.0 | 0.00 | 0.31 | 0.01 | 97 | 1010.4 |
| 20260510094644 | 51 | 18 | 1.0 | 2.0 | 0.00 | 0.31 | 0.01 | 97 | 1010.4 |
| 20260510094337 | 51 | 18 | 1.0 | 2.0 | 0.00 | 0.31 | 0.01 | 97 | 1010.5 |
| 20260510094135 | 51 | 18 | 0.0 | 0.0 | 0.00 | 0.31 | 0.01 | 97 | 1010.4 |
| 20260510093845 | 51 | 18 | 0.0 | 0.0 | 0.00 | 0.31 | 0.01 | 97 | 1010.4 |
| 20260510093643 | 51 | 18 | 0.0 | 0.0 | 0.00 | 0.31 | 0.01 | 97 | 1010.3 |
| 20260510093334 | 51 | 18 | 0.0 | 0.0 | 0.00 | 0.31 | 0.01 | 97 | 1010.3 |
| 20260510093131 | 51 | 18 | 0.0 | 0.0 | 0.00 | 0.31 | 0.01 | 97 | 1010.2 |
| 20260510092858 | 51 | 18 | 0.0 | 0.0 | 0.00 | 0.31 | 0.01 | 97 | 1010.2 |
| 20260510092640 | 51 | 18 | 0.0 | 0.0 | 0.00 | 0.31 | 0.01 | 97 | 1010.3 |
| 20260510092347 | 51 | 18 | 0.0 | 0.0 | 0.00 | 0.31 | 0.01 | 97 | 1010.3 |
| 20260510092129 | 51 | 18 | 0.0 | 1.0 | 0.00 | 0.31 | 0.01 | 97 | 1010.3 |
| 20260510091838 | 51 | 18 | 0.0 | 1.0 | 0.00 | 0.31 | 0.01 | 97 | 1010.4 |
| 20260510091700 | 51 | 18 | 0.0 | 2.0 | 0.00 | 0.31 | 0.01 | 97 | 1010.4 |
| 20260510091344 | 51 | 18 | 0.0 | 2.0 | 0.00 | 0.31 | 0.01 | 97 | 1010.4 |
| 20260510091148 | 51 | 18 | 0.0 | 2.0 | 0.00 | 0.31 | 0.01 | 97 | 1010.4 |
| 20260510090836 | 51 | 18 | 1.0 | 2.0 | 0.00 | 0.31 | 0.01 | 97 | 1010.5 |
| 20260510090639 | 51 | 18 | 1.0 | 3.0 | 0.00 | 0.31 | 0.01 | 97 | 1010.5 |
| 20260510090348 | 51 | 18 | 0.0 | 3.0 | 0.00 | 0.31 | 0.01 | 97 | 1010.6 |
| 20260510090129 | 51 | 18 | 1.0 | 3.0 | 0.00 | 0.31 | 0.01 | 97 | 1010.6 |
| 20260510085836 | 51 | 2 | 1.0 | 2.0 | 0.00 | 0.31 | 0.01 | 97 | 1010.6 |
| 20260510085638 | 51 | 2 | 1.0 | 2.0 | 0.00 | 0.31 | 0.01 | 97 | 1010.7 |
| 20260510085405 | 51 | 2 | 0.0 | 1.0 | 0.00 | 0.31 | 0.01 | 97 | 1010.6 |
| 20260510085144 | 51 | 2 | 0.0 | 1.0 | 0.00 | 0.31 | 0.01 | 97 | 1010.6 |
| 20260510084834 | 51 | 2 | 0.0 | 1.0 | 0.00 | 0.31 | 0.01 | 97 | 1010.7 |
| 20260510084633 | 51 | 2 | 0.0 | 3.0 | 0.00 | 0.31 | 0.01 | 97 | 1010.7 |
| 20260510084343 | 51 | 2 | 0.0 | 3.0 | 0.00 | 0.31 | 0.01 | 97 | 1010.7 |
| 20260510084142 | 51 | 2 | 0.0 | 3.0 | 0.00 | 0.31 | 0.01 | 97 | 1010.7 |
| 20260510083833 | 51 | 2 | 1.0 | 3.0 | 0.00 | 0.31 | 0.01 | 97 | 1010.7 |
| 20260510083631 | 51 | 2 | 1.0 | 2.0 | 0.00 | 0.31 | 0.01 | 97 | 1010.8 |
| 20260510083342 | 51 | 2 | 0.0 | 1.0 | 0.00 | 0.31 | 0.01 | 97 | 1010.8 |
| 20260510083140 | 51 | 2 | 1.0 | 1.0 | 0.00 | 0.31 | 0.01 | 97 | 1010.7 |
| 20260510082854 | 51 | 2 | 0.0 | 1.0 | 0.00 | 0.31 | 0.01 | 97 | 1010.7 |
| 20260510082651 | 51 | 2 | 0.0 | 2.0 | 0.00 | 0.31 | 0.01 | 97 | 1010.8 |
| 20260510082341 | 52 | 2 | 0.0 | 2.0 | 0.00 | 0.31 | 0.01 | 97 | 1010.8 |
| 20260510082137 | 51 | 2 | 0.0 | 3.0 | 0.00 | 0.31 | 0.01 | 97 | 1010.8 |
| 20260510081849 | 51 | 2 | 1.0 | 3.0 | 0.00 | 0.31 | 0.01 | 97 | 1010.8 |
| 20260510081647 | 51 | 2 | 1.0 | 3.0 | 0.00 | 0.31 | 0.01 | 97 | 1010.7 |
| 20260510081336 | 51 | 2 | 1.0 | 3.0 | 0.00 | 0.31 | 0.01 | 97 | 1010.6 |
| 20260510081135 | 51 | 2 | 2.0 | 3.0 | 0.00 | 0.31 | 0.01 | 97 | 1010.6 |
| 20260510080843 | 51 | 2 | 1.0 | 4.0 | 0.00 | 0.31 | 0.01 | 97 | 1010.7 |
| 20260510080645 | 51 | 2 | 1.0 | 4.0 | 0.00 | 0.31 | 0.01 | 97 | 1010.6 |
| 20260510080333 | 51 | 2 | 1.0 | 4.0 | 0.00 | 0.31 | 0.01 | 97 | 1010.6 |
| 20260510080135 | 51 | 2 | 3.0 | 4.0 | 0.00 | 0.31 | 0.01 | 97 | 1010.7 |
| 20260510075837 | 51 | 2 | 0.0 | 3.0 | 0.00 | 0.31 | 0.01 | 97 | 1010.6 |
| 20260510075702 | 51 | 2 | 1.0 | 3.0 | 0.00 | 0.31 | 0.01 | 97 | 1010.7 |
| 20260510075408 | 51 | 6 | 1.0 | 4.0 | 0.00 | 0.31 | 0.01 | 97 | 1010.6 |
| 20260510075147 | 51 | 6 | 1.0 | 6.0 | 0.00 | 0.31 | 0.01 | 97 | 1010.3 |
| 20260510074834 | 51 | 6 | 2.0 | 6.0 | 0.00 | 0.31 | 0.01 | 97 | 1010.6 |
| 20260510074636 | 52 | 5 | 3.0 | 6.0 | 0.00 | 0.31 | 0.01 | 97 | 1010.6 |
| 20260510074342 | 52 | 7 | 3.0 | 4.0 | 0.00 | 0.31 | 0.01 | 97 | 1010.3 |
| 20260510074140 | 52 | 179 | 1.0 | 3.0 | 0.00 | 0.31 | 0.01 | 97 | 1010.0 |
| 20260510073851 | 52 | 179 | 0.0 | 0.0 | 0.00 | 0.31 | 0.01 | 97 | 1009.9 |
| 20260510073647 | 52 | 179 | 0.0 | 0.0 | 0.00 | 0.31 | 0.01 | 97 | 1009.9 |
| 20260510073358 | 52 | 179 | 0.0 | 0.0 | 0.00 | 0.31 | 0.01 | 97 | 1009.9 |
| 20260510073136 | 52 | 179 | 0.0 | 0.0 | 0.00 | 0.31 | 0.01 | 97 | 1009.8 |
| 20260510072848 | 52 | 179 | 0.0 | 0.0 | 0.00 | 0.31 | 0.01 | 97 | 1009.8 |
| 20260510072647 | 52 | 179 | 0.0 | 0.0 | 0.00 | 0.31 | 0.01 | 97 | 1009.8 |
| 20260510072339 | 52 | 179 | 0.0 | 0.0 | 0.00 | 0.31 | 0.01 | 97 | 1009.8 |
| 20260510072137 | 52 | 179 | 0.0 | 0.0 | 0.00 | 0.31 | 0.01 | 97 | 1009.8 |
| 20260510071847 | 52 | 179 | 0.0 | 0.0 | 0.00 | 0.31 | 0.01 | 97 | 1009.8 |
| 20260510071645 | 52 | 179 | 0.0 | 0.0 | 0.00 | 0.31 | 0.01 | 97 | 1009.8 |
| 20260510071355 | 52 | 179 | 0.0 | 0.0 | 0.01 | 0.31 | 0.01 | 97 | 1009.8 |
| 20260510071132 | 52 | 179 | 0.0 | 0.0 | 0.01 | 0.31 | 0.01 | 97 | 1009.9 |
| 20260510070843 | 52 | 179 | 0.0 | 0.0 | 0.01 | 0.31 | 0.01 | 97 | 1009.9 |
| 20260510070640 | 52 | 179 | 0.0 | 0.0 | 0.01 | 0.31 | 0.01 | 97 | 1010.0 |
| 20260510070331 | 52 | 179 | 0.0 | 0.0 | 0.01 | 0.31 | 0.01 | 97 | 1010.0 |
| 20260510070149 | 52 | 179 | 0.0 | 0.0 | 0.01 | 0.31 | 0.01 | 97 | 1010.0 |
| 20260510065856 | 52 | 179 | 0.0 | 0.0 | 0.01 | 0.31 | 0.01 | 97 | 1010.0 |
| 20260510065638 | 52 | 179 | 0.0 | 0.0 | 0.01 | 0.31 | 0.01 | 97 | 1010.0 |
| 20260510065348 | 52 | 179 | 0.0 | 0.0 | 0.01 | 0.31 | 0.01 | 97 | 1010.1 |
| 20260510065132 | 52 | 179 | 0.0 | 0.0 | 0.01 | 0.31 | 0.01 | 97 | 1010.0 |
| 20260510064840 | 52 | 179 | 0.0 | 3.0 | 0.01 | 0.31 | 0.01 | 97 | 1010.0 |
| 20260510064641 | 52 | 179 | 0.0 | 3.0 | 0.01 | 0.31 | 0.01 | 97 | 1010.0 |
| 20260510064408 | 52 | 179 | 1.0 | 3.0 | 0.01 | 0.31 | 0.01 | 97 | 1010.0 |
| 20260510064149 | 52 | 179 | 0.0 | 3.0 | 0.01 | 0.31 | 0.01 | 97 | 1010.0 |
| 20260510063836 | 52 | 179 | 1.0 | 2.0 | 0.01 | 0.31 | 0.01 | 97 | 1010.0 |
| 20260510063640 | 52 | 179 | 1.0 | 2.0 | 0.01 | 0.31 | 0.01 | 97 | 1010.1 |
| 20260510063347 | 52 | 179 | 0.0 | 2.0 | 0.01 | 0.31 | 0.01 | 97 | 1010.1 |
| 20260510063144 | 52 | 179 | 0.0 | 2.0 | 0.01 | 0.31 | 0.01 | 97 | 1010.1 |
| 20260510062834 | 52 | 179 | 0.0 | 2.0 | 0.01 | 0.31 | 0.01 | 97 | 1010.1 |
| 20260510062634 | 52 | 179 | 0.0 | 3.0 | 0.01 | 0.31 | 0.01 | 97 | 1010.1 |
| 20260510062345 | 52 | 179 | 0.0 | 3.0 | 0.01 | 0.31 | 0.01 | 97 | 1010.1 |
| 20260510062144 | 52 | 179 | 1.0 | 3.0 | 0.01 | 0.31 | 0.01 | 97 | 1010.1 |
| 20260510061835 | 52 | 179 | 0.0 | 0.0 | 0.01 | 0.31 | 0.01 | 97 | 1010.0 |
| 20260510061634 | 52 | 179 | 0.0 | 0.0 | 0.01 | 0.31 | 0.01 | 97 | 1010.0 |
| 20260510061344 | 52 | 179 | 0.0 | 0.0 | 0.00 | 0.30 | 0.00 | 97 | 1010.0 |
| 20260510061143 | 52 | 179 | 0.0 | 0.0 | 0.00 | 0.30 | 0.00 | 97 | 1010.0 |
| 20260510060835 | 52 | 179 | 0.0 | 0.0 | 0.00 | 0.30 | 0.00 | 97 | 1009.9 |
| 20260510060631 | 52 | 179 | 0.0 | 0.0 | 0.00 | 0.30 | 0.00 | 97 | 1009.9 |
| 20260510060341 | 52 | 179 | 0.0 | 0.0 | 0.00 | 0.30 | 0.00 | 97 | 1009.9 |
| 20260510060200 | 52 | 179 | 0.0 | 0.0 | 0.00 | 0.30 | 0.00 | 97 | 1009.9 |
| 20260510055829 | 52 | 179 | 0.0 | 0.0 | 0.00 | 0.30 | 0.00 | 97 | 1009.9 |
| 20260510055648 | 52 | 179 | 0.0 | 0.0 | 0.00 | 0.30 | 0.00 | 97 | 1009.9 |
| 20260510055339 | 52 | 179 | 0.0 | 0.0 | 0.00 | 0.30 | 0.00 | 97 | 1009.8 |
| 20260510055139 | 52 | 179 | 0.0 | 0.0 | 0.00 | 0.30 | 0.00 | 97 | 1009.7 |
| 20260510054830 | 52 | 179 | 0.0 | 0.0 | 0.00 | 0.30 | 0.00 | 97 | 1009.8 |
| 20260510054648 | 52 | 179 | 0.0 | 0.0 | 0.00 | 0.30 | 0.00 | 97 | 1009.8 |
| 20260510054340 | 52 | 179 | 0.0 | 0.0 | 0.00 | 0.30 | 0.00 | 97 | 1009.8 |
| 20260510054159 | 52 | 179 | 0.0 | 0.0 | 0.00 | 0.30 | 0.00 | 97 | 1009.7 |
| 20260510053845 | 52 | 179 | 0.0 | 0.0 | 0.00 | 0.30 | 0.00 | 97 | 1009.7 |
| 20260510053647 | 52 | 179 | 0.0 | 0.0 | 0.00 | 0.30 | 0.00 | 97 | 1009.7 |
| 20260510053337 | 52 | 179 | 0.0 | 0.0 | 0.00 | 0.30 | 0.00 | 97 | 1009.7 |
| 20260510053141 | 52 | 179 | 0.0 | 0.0 | 0.00 | 0.30 | 0.00 | 97 | 1009.8 |
| 20260510052847 | 52 | 179 | 0.0 | 0.0 | 0.00 | 0.30 | 0.00 | 97 | 1009.8 |
| 20260510052648 | 52 | 179 | 0.0 | 0.0 | 0.00 | 0.30 | 0.00 | 97 | 1009.9 |
| 20260510052334 | 52 | 179 | 0.0 | 0.0 | 0.00 | 0.30 | 0.00 | 97 | 1009.9 |
| 20260510052137 | 52 | 179 | 0.0 | 0.0 | 0.00 | 0.30 | 0.00 | 97 | 1009.8 |
| 20260510051845 | 52 | 179 | 0.0 | 0.0 | 0.00 | 0.30 | 0.00 | 97 | 1009.8 |
| 20260510051708 | 52 | 179 | 0.0 | 0.0 | 0.00 | 0.30 | 0.00 | 97 | 1009.9 |
| 20260510051333 | 52 | 179 | 0.0 | 0.0 | 0.00 | 0.30 | 0.00 | 97 | 1009.9 |
| 20260510051136 | 52 | 179 | 0.0 | 0.0 | 0.00 | 0.30 | 0.00 | 97 | 1009.9 |
| 20260510050844 | 52 | 179 | 0.0 | 0.0 | 0.00 | 0.30 | 0.00 | 97 | 1009.9 |
| 20260510050703 | 52 | 179 | 0.0 | 0.0 | 0.00 | 0.30 | 0.00 | 97 | 1010.0 |
| 20260510050333 | 52 | 179 | 0.0 | 0.0 | 0.00 | 0.30 | 0.00 | 97 | 1009.9 |
| 20260510050131 | 52 | 179 | 0.0 | 0.0 | 0.00 | 0.30 | 0.00 | 97 | 1009.9 |
| 20260510045842 | 52 | 179 | 0.0 | 0.0 | 0.00 | 0.30 | 0.00 | 97 | 1009.9 |
| 20260510045640 | 52 | 179 | 0.0 | 0.0 | 0.00 | 0.30 | 0.00 | 97 | 1009.9 |
| 20260510045330 | 52 | 179 | 0.0 | 0.0 | 0.00 | 0.30 | 0.00 | 97 | 1010.0 |
| 20260510045149 | 52 | 179 | 0.0 | 0.0 | 0.00 | 0.30 | 0.00 | 97 | 1010.0 |
| 20260510044840 | 52 | 179 | 0.0 | 0.0 | 0.00 | 0.30 | 0.00 | 97 | 1010.1 |
| 20260510044640 | 52 | 179 | 0.0 | 0.0 | 0.00 | 0.30 | 0.00 | 97 | 1010.0 |
| 20260510044331 | 52 | 179 | 0.0 | 0.0 | 0.00 | 0.30 | 0.00 | 97 | 1010.0 |
| 20260510044148 | 52 | 179 | 0.0 | 0.0 | 0.00 | 0.30 | 0.00 | 97 | 1010.0 |
| 20260510043839 | 52 | 179 | 0.0 | 0.0 | 0.00 | 0.30 | 0.00 | 97 | 1010.0 |
| 20260510043659 | 52 | 179 | 0.0 | 0.0 | 0.00 | 0.30 | 0.00 | 97 | 1010.0 |
| 20260510043331 | 52 | 179 | 0.0 | 0.0 | 0.00 | 0.30 | 0.00 | 97 | 1009.9 |
| 20260510043148 | 52 | 179 | 0.0 | 0.0 | 0.00 | 0.30 | 0.00 | 97 | 1010.0 |
| 20260510042839 | 52 | 179 | 0.0 | 0.0 | 0.00 | 0.30 | 0.00 | 97 | 1010.0 |
| 20260510042637 | 52 | 179 | 0.0 | 0.0 | 0.00 | 0.30 | 0.00 | 97 | 1010.0 |
| 20260510042348 | 52 | 179 | 0.0 | 0.0 | 0.00 | 0.30 | 0.00 | 97 | 1010.0 |
| 20260510042145 | 52 | 179 | 0.0 | 0.0 | 0.00 | 0.30 | 0.00 | 97 | 1010.0 |
| 20260510041837 | 52 | 179 | 0.0 | 0.0 | 0.00 | 0.30 | 0.00 | 97 | 1010.0 |
| 20260510041656 | 52 | 179 | 0.0 | 0.0 | 0.00 | 0.30 | 0.00 | 97 | 1009.9 |
| 20260510041340 | 52 | 179 | 0.0 | 2.0 | 0.00 | 0.30 | 0.00 | 97 | 1010.0 |
| 20260510041145 | 52 | 179 | 0.0 | 2.0 | 0.00 | 0.30 | 0.00 | 97 | 1010.0 |
| 20260510040832 | 52 | 179 | 0.0 | 2.0 | 0.00 | 0.30 | 0.00 | 97 | 1009.9 |
| 20260510040655 | 52 | 179 | 1.0 | 2.0 | 0.00 | 0.30 | 0.00 | 97 | 1010.0 |
| 20260510040340 | 52 | 179 | 0.0 | 0.0 | 0.00 | 0.30 | 0.00 | 97 | 1009.9 |
| 20260510040142 | 52 | 179 | 0.0 | 0.0 | 0.00 | 0.30 | 0.00 | 97 | 1009.9 |
| 20260510035842 | 52 | 179 | 0.0 | 0.0 | 0.00 | 0.30 | 0.00 | 97 | 1010.0 |
| 20260510035645 | 52 | 179 | 0.0 | 0.0 | 0.00 | 0.30 | 0.00 | 97 | 1010.0 |
| 20260510035334 | 52 | 179 | 0.0 | 0.0 | 0.00 | 0.30 | 0.00 | 97 | 1010.1 |
| 20260510035137 | 52 | 179 | 0.0 | 0.0 | 0.00 | 0.30 | 0.00 | 97 | 1010.0 |
| 20260510034844 | 52 | 179 | 0.0 | 0.0 | 0.00 | 0.30 | 0.30 | 97 | 1010.0 |
| 20260510034646 | 52 | 179 | 0.0 | 0.0 | 0.00 | 0.30 | 0.30 | 97 | 1009.9 |
| 20260510034334 | 52 | 179 | 0.0 | 0.0 | 0.00 | 0.30 | 0.30 | 97 | 1009.8 |
| 20260510034137 | 52 | 179 | 0.0 | 0.0 | 0.00 | 0.30 | 0.30 | 97 | 1009.8 |
| 20260510033843 | 52 | 179 | 0.0 | 0.0 | 0.00 | 0.30 | 0.30 | 96 | 1009.8 |
| 20260510033640 | 52 | 179 | 0.0 | 0.0 | 0.00 | 0.30 | 0.30 | 97 | 1009.8 |
| 20260510033332 | 51 | 179 | 0.0 | 0.0 | 0.00 | 0.30 | 0.30 | 97 | 1009.8 |
| 20260510033149 | 51 | 179 | 0.0 | 1.0 | 0.00 | 0.30 | 0.30 | 96 | 1009.9 |
| 20260510032841 | 51 | 179 | 0.0 | 1.0 | 0.00 | 0.30 | 0.30 | 96 | 1009.9 |
| 20260510032639 | 51 | 179 | 0.0 | 1.0 | 0.00 | 0.30 | 0.30 | 96 | 1009.8 |
| 20260510032350 | 51 | 179 | 0.0 | 1.0 | 0.00 | 0.30 | 0.30 | 96 | 1009.8 |
| 20260510032209 | 51 | 179 | 0.0 | 1.0 | 0.00 | 0.30 | 0.30 | 96 | 1009.7 |
| 20260510031840 | 51 | 179 | 0.0 | 1.0 | 0.00 | 0.30 | 0.30 | 96 | 1009.6 |
| 20260510031638 | 51 | 179 | 0.0 | 0.0 | 0.00 | 0.30 | 0.30 | 96 | 1009.6 |
| 20260510031347 | 51 | 179 | 0.0 | 0.0 | 0.00 | 0.30 | 0.30 | 96 | 1009.6 |
| 20260510031205 | 51 | 179 | 0.0 | 1.0 | 0.00 | 0.30 | 0.30 | 96 | 1009.7 |
| 20260510030835 | 51 | 179 | 0.0 | 2.0 | 0.00 | 0.30 | 0.30 | 96 | 1009.7 |
| 20260510030633 | 51 | 179 | 0.0 | 2.0 | 0.00 | 0.30 | 0.30 | 96 | 1009.6 |
| 20260510030345 | 51 | 179 | 1.0 | 3.0 | 0.00 | 0.30 | 0.30 | 96 | 1009.6 |
| 20260510030144 | 51 | 179 | 2.0 | 3.0 | 0.00 | 0.30 | 0.30 | 96 | 1009.6 |
| 20260510025835 | 51 | 179 | 2.0 | 3.0 | 0.00 | 0.30 | 0.30 | 96 | 1009.5 |
| 20260510025653 | 51 | 179 | 2.0 | 3.0 | 0.00 | 0.30 | 0.30 | 96 | 1009.5 |
| 20260510025339 | 51 | 179 | 1.0 | 3.0 | 0.00 | 0.30 | 0.30 | 96 | 1009.5 |
| 20260510025142 | 51 | 179 | 2.0 | 3.0 | 0.00 | 0.30 | 0.30 | 96 | 1009.6 |
| 20260510024830 | 51 | 179 | 2.0 | 3.0 | 0.00 | 0.30 | 0.30 | 96 | 1009.7 |
| 20260510024631 | 51 | 179 | 2.0 | 3.0 | 0.00 | 0.30 | 0.30 | 96 | 1009.8 |
| 20260510024400 | 51 | 179 | 1.0 | 3.0 | 0.00 | 0.30 | 0.30 | 96 | 1009.7 |
| 20260510024140 | 50 | 179 | 1.0 | 2.0 | 0.00 | 0.30 | 0.30 | 96 | 1009.7 |
| 20260510023846 | 50 | 179 | 0.0 | 1.0 | 0.00 | 0.30 | 0.30 | 96 | 1009.8 |
| 20260510023709 | 50 | 179 | 0.0 | 1.0 | 0.00 | 0.30 | 0.30 | 96 | 1009.8 |
| 20260510023337 | 50 | 179 | 0.0 | 1.0 | 0.00 | 0.30 | 0.30 | 96 | 1009.8 |
| 20260510023138 | 50 | 179 | 1.0 | 1.0 | 0.00 | 0.30 | 0.30 | 96 | 1009.8 |
| 20260510022845 | 50 | 179 | 0.0 | 0.0 | 0.00 | 0.30 | 0.30 | 96 | 1009.8 |
| 20260510022643 | 50 | 179 | 0.0 | 0.0 | 0.00 | 0.30 | 0.30 | 95 | 1009.9 |
| 20260510022354 | 50 | 179 | 0.0 | 1.0 | 0.00 | 0.30 | 0.30 | 96 | 1009.9 |
| 20260510022130 | 50 | 179 | 0.0 | 1.0 | 0.00 | 0.30 | 0.30 | 96 | 1009.8 |
| 20260510021842 | 50 | 179 | 0.0 | 1.0 | 0.00 | 0.30 | 0.30 | 95 | 1009.7 |
| 20260510021641 | 51 | 179 | 0.0 | 1.0 | 0.00 | 0.30 | 0.30 | 95 | 1009.8 |
| 20260510021331 | 51 | 179 | 0.0 | 1.0 | 0.00 | 0.30 | 0.30 | 95 | 1009.8 |
| 20260510021130 | 51 | 179 | 0.0 | 1.0 | 0.00 | 0.30 | 0.30 | 95 | 1009.7 |
| 20260510020908 | 51 | 179 | 0.0 | 1.0 | 0.00 | 0.30 | 0.30 | 95 | 1009.8 |
| 20260510020647 | 51 | 179 | 0.0 | 1.0 | 0.00 | 0.30 | 0.30 | 95 | 1009.7 |
| 20260510020359 | 51 | 179 | 0.0 | 1.0 | 0.00 | 0.30 | 0.30 | 95 | 1009.8 |
| 20260510020135 | 51 | 179 | 0.0 | 1.0 | 0.00 | 0.30 | 0.30 | 95 | 1009.8 |
| 20260510015846 | 51 | 179 | 0.0 | 1.0 | 0.00 | 0.30 | 0.30 | 95 | 1009.7 |
| 20260510015644 | 51 | 179 | 1.0 | 1.0 | 0.00 | 0.30 | 0.30 | 95 | 1009.7 |
| 20260510015335 | 51 | 179 | 0.0 | 0.0 | 0.00 | 0.30 | 0.30 | 95 | 1009.7 |
| 20260510015134 | 51 | 179 | 0.0 | 0.0 | 0.00 | 0.30 | 0.30 | 95 | 1009.7 |
| 20260510014846 | 51 | 179 | 0.0 | 0.0 | 0.00 | 0.30 | 0.30 | 95 | 1009.7 |
| 20260510014644 | 51 | 179 | 0.0 | 0.0 | 0.00 | 0.30 | 0.30 | 95 | 1009.7 |
| 20260510014333 | 51 | 179 | 0.0 | 0.0 | 0.00 | 0.30 | 0.30 | 95 | 1009.7 |
| 20260510014151 | 51 | 179 | 0.0 | 0.0 | 0.00 | 0.30 | 0.30 | 95 | 1009.7 |
| 20260510013836 | 51 | 179 | 0.0 | 0.0 | 0.00 | 0.30 | 0.30 | 95 | 1009.7 |
| 20260510013637 | 51 | 179 | 0.0 | 0.0 | 0.00 | 0.30 | 0.30 | 95 | 1009.7 |
| 20260510013405 | 52 | 179 | 0.0 | 0.0 | 0.00 | 0.30 | 0.30 | 95 | 1009.7 |
| 20260510013147 | 52 | 179 | 0.0 | 0.0 | 0.00 | 0.30 | 0.30 | 95 | 1009.8 |
| 20260510012834 | 52 | 179 | 0.0 | 0.0 | 0.00 | 0.30 | 0.30 | 95 | 1009.8 |
| 20260510012637 | 52 | 179 | 0.0 | 0.0 | 0.00 | 0.30 | 0.30 | 95 | 1009.7 |
| 20260510012346 | 52 | 179 | 0.0 | 1.0 | 0.00 | 0.30 | 0.30 | 95 | 1009.7 |
| 20260510012129 | 52 | 179 | 0.0 | 1.0 | 0.00 | 0.30 | 0.30 | 95 | 1009.6 |
| 20260510011837 | 52 | 179 | 0.0 | 1.0 | 0.00 | 0.30 | 0.30 | 95 | 1009.6 |
| 20260510011639 | 52 | 179 | 0.0 | 1.0 | 0.00 | 0.30 | 0.30 | 95 | 1009.7 |
| 20260510011404 | 52 | 179 | 1.0 | 1.0 | 0.00 | 0.30 | 0.30 | 95 | 1009.6 |
| 20260510011141 | 52 | 179 | 0.0 | 1.0 | 0.00 | 0.30 | 0.30 | 95 | 1009.6 |
| 20260510010832 | 52 | 179 | 0.0 | 1.0 | 0.00 | 0.30 | 0.30 | 95 | 1009.4 |
| 20260510010649 | 52 | 179 | 0.0 | 1.0 | 0.00 | 0.30 | 0.30 | 95 | 1009.4 |
| 20260510010341 | 52 | 179 | 0.0 | 1.0 | 0.00 | 0.30 | 0.30 | 95 | 1009.3 |
| 20260510010138 | 52 | 179 | 0.0 | 1.0 | 0.00 | 0.30 | 0.30 | 95 | 1009.3 |
| 20260510005848 | 52 | 179 | 0.0 | 1.0 | 0.00 | 0.30 | 0.30 | 95 | 1009.2 |
| 20260510005646 | 53 | 179 | 0.0 | 1.0 | 0.00 | 0.30 | 0.30 | 95 | 1009.2 |
| 20260510005337 | 53 | 179 | 0.0 | 1.0 | 0.00 | 0.30 | 0.30 | 95 | 1009.2 |
| 20260510005136 | 53 | 179 | 0.0 | 0.0 | 0.00 | 0.30 | 0.30 | 94 | 1009.2 |
| 20260510004847 | 53 | 179 | 0.0 | 0.0 | 0.00 | 0.30 | 0.30 | 94 | 1009.1 |
| 20260510004647 | 53 | 179 | 0.0 | 0.0 | 0.00 | 0.30 | 0.30 | 94 | 1009.2 |
| 20260510004339 | 53 | 179 | 0.0 | 0.0 | 0.00 | 0.30 | 0.30 | 94 | 1009.1 |
| 20260510004136 | 53 | 179 | 0.0 | 0.0 | 0.00 | 0.30 | 0.30 | 94 | 1009.1 |
| 20260510003846 | 53 | 179 | 0.0 | 0.0 | 0.00 | 0.30 | 0.30 | 94 | 1009.1 |
| 20260510003644 | 53 | 179 | 0.0 | 0.0 | 0.00 | 0.30 | 0.30 | 94 | 1009.0 |
| 20260510003334 | 54 | 179 | 0.0 | 1.0 | 0.00 | 0.30 | 0.30 | 94 | 1009.0 |
| 20260510003133 | 54 | 179 | 0.0 | 1.0 | 0.00 | 0.30 | 0.30 | 94 | 1009.0 |
| 20260510002845 | 54 | 179 | 0.0 | 1.0 | 0.00 | 0.30 | 0.30 | 95 | 1009.0 |
| 20260510002645 | 54 | 179 | 0.0 | 1.0 | 0.00 | 0.30 | 0.30 | 95 | 1009.1 |
| 20260510002334 | 54 | 179 | 1.0 | 1.0 | 0.00 | 0.30 | 0.30 | 94 | 1009.1 |
| 20260510002133 | 54 | 179 | 0.0 | 1.0 | 0.00 | 0.30 | 0.30 | 94 | 1009.1 |
| 20260510001844 | 54 | 179 | 0.0 | 1.0 | 0.00 | 0.30 | 0.30 | 94 | 1009.1 |
| 20260510001643 | 54 | 179 | 0.0 | 1.0 | 0.00 | 0.30 | 0.30 | 94 | 1009.2 |
| 20260510001333 | 54 | 179 | 0.0 | 1.0 | 0.00 | 0.30 | 0.30 | 95 | 1009.1 |
| 20260510001131 | 54 | 179 | 0.0 | 1.0 | 0.00 | 0.30 | 0.30 | 95 | 1009.2 |
| 20260510000839 | 54 | 179 | 0.0 | 1.0 | 0.00 | 0.30 | 0.30 | 95 | 1009.1 |
| 20260510000641 | 54 | 179 | 0.0 | 1.0 | 0.00 | 0.30 | 0.30 | 94 | 1009.0 |
| 20260510000411 | 55 | 179 | 0.0 | 1.0 | 0.00 | 0.30 | 0.30 | 94 | 1009.1 |
| 20260510000130 | 55 | 179 | 0.0 | 1.0 | 0.00 | 0.30 | 0.30 | 94 | 1009.1 |
| 20260509235837 | 55 | 179 | 0.0 | 1.0 | 0.00 | 0.30 | 0.30 | 94 | 1009.1 |
| 20260509235701 | 55 | 179 | 0.0 | 1.0 | 0.00 | 0.30 | 0.30 | 95 | 1009.0 |
| 20260509235347 | 55 | 179 | 0.0 | 1.0 | 0.00 | 0.30 | 0.30 | 95 | 1009.0 |
| 20260509235148 | 55 | 179 | 0.0 | 2.0 | 0.00 | 0.30 | 0.30 | 95 | 1009.0 |
| 20260509234834 | 55 | 179 | 0.0 | 3.0 | 0.00 | 0.30 | 0.30 | 95 | 1009.0 |
| 20260509234635 | 55 | 179 | 1.0 | 3.0 | 0.00 | 0.30 | 0.30 | 95 | 1009.0 |
| 20260509234342 | 55 | 179 | 1.0 | 3.0 | 0.00 | 0.30 | 0.30 | 94 | 1008.9 |
| 20260509234200 | 55 | 179 | 1.0 | 3.0 | 0.00 | 0.30 | 0.30 | 95 | 1008.9 |
| 20260509233831 | 55 | 179 | 0.0 | 3.0 | 0.00 | 0.30 | 0.30 | 95 | 1008.9 |
| 20260509233629 | 55 | 179 | 1.0 | 3.0 | 0.00 | 0.30 | 0.30 | 95 | 1008.8 |
| 20260509233340 | 55 | 179 | 1.0 | 2.0 | 0.00 | 0.30 | 0.30 | 95 | 1008.8 |
| 20260509233139 | 55 | 179 | 1.0 | 2.0 | 0.00 | 0.30 | 0.30 | 95 | 1008.7 |
| 20260509232830 | 55 | 179 | 1.0 | 2.0 | 0.00 | 0.30 | 0.30 | 94 | 1008.7 |
| 20260509232648 | 55 | 179 | 1.0 | 2.0 | 0.00 | 0.30 | 0.30 | 95 | 1008.8 |
| 20260509232339 | 55 | 179 | 0.0 | 4.0 | 0.00 | 0.30 | 0.30 | 94 | 1008.8 |
| 20260509232137 | 55 | 179 | 0.0 | 4.0 | 0.00 | 0.30 | 0.30 | 94 | 1008.7 |
| 20260509231848 | 55 | 179 | 0.0 | 4.0 | 0.00 | 0.30 | 0.30 | 94 | 1008.8 |
| 20260509231645 | 55 | 179 | 2.0 | 4.0 | 0.00 | 0.30 | 0.30 | 94 | 1008.8 |
| 20260509231335 | 55 | 180 | 1.0 | 5.0 | 0.00 | 0.30 | 0.30 | 94 | 1008.8 |
| 20260509231133 | 55 | 180 | 1.0 | 5.0 | 0.00 | 0.30 | 0.30 | 94 | 1008.8 |
| 20260509230910 | 55 | 180 | 2.0 | 5.0 | 0.00 | 0.30 | 0.30 | 94 | 1008.7 |
| 20260509230708 | 55 | 166 | 1.0 | 4.0 | 0.00 | 0.30 | 0.30 | 94 | 1008.7 |
| 20260509230338 | 55 | 167 | 2.0 | 4.0 | 0.00 | 0.30 | 0.30 | 94 | 1008.7 |
| 20260509230136 | 56 | 175 | 2.0 | 4.0 | 0.00 | 0.30 | 0.30 | 95 | 1008.7 |
| 20260509225844 | 55 | 166 | 1.0 | 6.0 | 0.00 | 0.30 | 0.30 | 94 | 1008.7 |
| 20260509225646 | 55 | 166 | 1.0 | 6.0 | 0.00 | 0.30 | 0.30 | 94 | 1008.7 |
| 20260509225336 | 56 | 191 | 3.0 | 6.0 | 0.00 | 0.30 | 0.30 | 94 | 1008.9 |
| 20260509225139 | 56 | 166 | 1.0 | 5.0 | 0.00 | 0.30 | 0.30 | 95 | 1008.9 |
| 20260509224847 | 56 | 137 | 2.0 | 4.0 | 0.00 | 0.30 | 0.30 | 95 | 1008.9 |
| 20260509224709 | 56 | 137 | 1.0 | 6.0 | 0.00 | 0.30 | 0.30 | 95 | 1008.9 |
| 20260509224356 | 56 | 137 | 2.0 | 6.0 | 0.00 | 0.30 | 0.30 | 94 | 1008.9 |
| 20260509224136 | 56 | 143 | 2.0 | 6.0 | 0.00 | 0.30 | 0.30 | 94 | 1008.9 |
| 20260509223903 | 56 | 148 | 3.0 | 6.0 | 0.00 | 0.30 | 0.30 | 94 | 1009.0 |
| 20260509223639 | 56 | 143 | 4.0 | 6.0 | 0.00 | 0.30 | 0.30 | 95 | 1009.0 |
| 20260509223331 | 56 | 206 | 1.0 | 4.0 | 0.01 | 0.30 | 0.30 | 95 | 1009.1 |
| 20260509223130 | 55 | 206 | 1.0 | 4.0 | 0.01 | 0.30 | 0.30 | 95 | 1009.1 |
| 20260509222842 | 55 | 206 | 1.0 | 4.0 | 0.02 | 0.30 | 0.30 | 94 | 1009.2 |
| 20260509222641 | 55 | 206 | 2.0 | 4.0 | 0.02 | 0.30 | 0.30 | 94 | 1009.2 |
| 20260509222330 | 55 | 206 | 1.0 | 4.0 | 0.02 | 0.30 | 0.30 | 95 | 1009.2 |
| 20260509222148 | 55 | 206 | 1.0 | 4.0 | 0.02 | 0.30 | 0.30 | 95 | 1009.1 |
| 20260509221839 | 55 | 206 | 1.0 | 5.0 | 0.03 | 0.30 | 0.30 | 94 | 1009.0 |
| 20260509221637 | 55 | 206 | 2.0 | 5.0 | 0.04 | 0.30 | 0.30 | 94 | 1009.0 |
| 20260509221347 | 55 | 206 | 3.0 | 5.0 | 0.04 | 0.30 | 0.30 | 94 | 1009.0 |
| 20260509221144 | 55 | 206 | 3.0 | 5.0 | 0.06 | 0.30 | 0.30 | 94 | 1009.0 |
| 20260509220834 | 55 | 200 | 3.0 | 7.0 | 0.06 | 0.30 | 0.30 | 95 | 1009.0 |
| 20260509220633 | 55 | 181 | 1.0 | 7.0 | 0.07 | 0.30 | 0.30 | 94 | 1009.0 |
| 20260509220343 | 55 | 181 | 3.0 | 7.0 | 0.07 | 0.30 | 0.30 | 94 | 1009.1 |
| 20260509220144 | 55 | 191 | 3.0 | 7.0 | 0.07 | 0.30 | 0.30 | 94 | 1009.1 |
| 20260509215832 | 56 | 171 | 3.0 | 7.0 | 0.08 | 0.30 | 0.30 | 94 | 1009.1 |
| 20260509215650 | 55 | 150 | 3.0 | 7.0 | 0.08 | 0.30 | 0.30 | 94 | 1009.1 |
| 20260509215408 | 55 | 162 | 3.0 | 7.0 | 0.08 | 0.30 | 0.30 | 94 | 1009.1 |
| 20260509215145 | 55 | 134 | 3.0 | 7.0 | 0.08 | 0.30 | 0.30 | 94 | 1009.0 |
| 20260509214837 | 55 | 132 | 1.0 | 4.0 | 0.10 | 0.30 | 0.30 | 94 | 1009.1 |